Location: Navalmoral
(40.4603°N, 4.7686°W)
Time: 10:02:44
(UTC+00:00)

CZ-4C R/B - Pass Details

Date: 05 August 2024
Orbit: 441 x 572 km, 98.0° (Epoch: 14 September)

Event Time Altitude Azimuth Distance (km) Brightness Sun altitude
Rises 21:08:00 0° 13° (NNE) 2,449 7.0 -16.8°
Reaches altitude 10° 21:10:02 10° 15° (NNE) 1,568 6.0 -17.1°
Maximum altitude 21:13:22 81° 101° (E) 454 2.7 -17.6°
Enters shadow 21:14:35 37° 185° (S) 709 3.6 -17.8°
